Location: Potomac
(46.8816°N, 113.5795°W)
Time: 08:09:38
(UTC+00:00)

NANOSAT C BR1 - Pass Details

Date: 02 July 2022
Orbit: 584 x 599 km, 98.0° (Epoch: 09 August)

Event Time Altitude Azimuth Distance (km) Brightness Sun altitude
Rises 09:22:10 0° 18° (NNE) 2,850 ? -16.3°
Reaches altitude 10° 09:24:25 10° 25° (NNE) 1,945 ? -16.1°
Maximum altitude 09:28:29 46° 99° (E) 808 ? -15.8°
Enters shadow 09:31:10 20° 165° (SSE) 1,416 ? -15.6°
